Regional Weather Roundup
Issued by NWS

Home | Current Version | Previous Version | Graphics & Text | Print | Product List | Glossary On
Versions: 1 2 3 4 5 6 7 8 9 10 11 12 13 14 15 16 17 18 19 20 21 22 23 24 25 26 27 28 29 30 31 32 33 34 35 36 37 38 39 40 41 42 43 44 45 46 47 48 49 50
000
ASUS43 KLMK 251202
RWRKY
KENTUCKY REGIONAL WEATHER ROUNDUP
NATIONAL WEATHER SERVICE LOUISVILLE KY
800 AM EDT THU MAY 25 2017

NOTE "FAIR" INDICATES FEW OR NO CLOUDS BELOW 12,000 FEET
WITH NO SIGNIFICANT WEATHER AND/OR OBSTRUCTIONS TO VISIBILITY.

KYZ001>023-026-027-061>063-070>075-251300-
WESTERN AND SOUTH CENTRAL KENTUCKY

CITY           SKY/WX    TMP DP  RH WIND       PRES   REMARKS
PADUCAH        SUNNY     56  50  80 W9        29.66R
HENDERSON      CLOUDY    58  55  90 W10       29.61R
OWENSBORO      NOT AVBL
HOPKINSVILLE   CLOUDY    55  54  95 W12       29.64R
BOWLING GREEN  CLOUDY    58  55  90 W12       29.61R
GLASGOW        NOT AVBL
$$

KYZ024-025-028>034-038-045-046-053-251300-
NORTH CENTRAL KENTUCKY

CITY           SKY/WX    TMP DP  RH WIND       PRES   REMARKS
LOUISVILLE/SDF CLOUDY    60  56  86 W15       29.50R FOG
LOUISVILLE/LOU CLOUDY    59  58  96 SW9       29.50R
FORT KNOX      CLOUDY    57  56  97 W9        29.52R
$$

KYZ035>037-039>044-047>052-055>060-089>105-251300-
NORTHEAST KENTUCKY

CITY           SKY/WX    TMP DP  RH WIND       PRES   REMARKS
LEXINGTON      LGT RAIN  57  54  89 SW10      29.50R FOG
COVINGTON      RAIN      57  56  96 SW7       29.40R FOG
FRANKFORT      LGT RAIN  57  54  89 W9        29.47S
$$

KYZ054-064>069-076>088-106>120-251300-
SOUTHEAST KENTUCKY

CITY           SKY/WX    TMP DP  RH WIND       PRES   REMARKS
JACKSON        CLOUDY    53  51  93 CALM      29.54R
LONDON         CLOUDY    53  50  89 SW10      29.57R FOG
SOMERSET       NOT AVBL
MIDDLESBORO    CLOUDY    54  49  83 S6        29.61S
MONTICELLO     CLOUDY    55  53  93 W17       29.61R
$$





USA.gov is the U.S. government's official web portal to all federal, state and local government web resources and services.